This is the latest recevied weather packets stored in our database for station/object K7SKM. If no packets are shown the sender has not sent any weather packets the latest 10 day(s).
| Time | Temp. | Humidity | Pressure | Rain* | Wind** | Luminosity | Snow |
|---|---|---|---|---|---|---|---|
| 1788565970 | 18.33° C | 60% | 1018.8 hPa | 0 mm | - | 262 W/m² | - |
| 1788565675 | 18.89° C | 61% | 1019 hPa | 0 mm | - | 348 W/m² | - |
| 1788565360 | 18.89° C | 63% | 1018.9 hPa | 0 mm | - | 303 W/m² | - |
| 1788565056 | 18.89° C | 63% | 1019 hPa | 0 mm | - | 148 W/m² | - |
| 1788564752 | 19.44° C | 63% | 1018.8 hPa | 0 mm | - | 127 W/m² | - |
| 1788564448 | 18.89° C | 61% | 1018.8 hPa | 0 mm | - | 114 W/m² | - |
| 1788564144 | 20° C | 60% | 1018.8 hPa | 0 mm | - | 118 W/m² | - |
| 1788563839 | 19.44° C | 53% | 1018.8 hPa | 0 mm | - | 129 W/m² | - |
| 1788563535 | 19.44° C | 55% | 1018.7 hPa | 0 mm | - | 116 W/m² | - |
| 1788563229 | 18.89° C | 57% | 1018.7 hPa | 0 mm | - | 109 W/m² | - |
| 1788562923 | 18.33° C | 71% | 1018.6 hPa | 0 mm | - | 135 W/m² | - |
| 1788562623 | 17.78° C | 65% | 1018.6 hPa | 0 mm | - | 82 W/m² | - |
| 1788562317 | 17.78° C | 68% | 1018.6 hPa | 0 mm | - | 82 W/m² | - |
| 1788562010 | 17.22° C | 71% | 1018.5 hPa | 0 mm | - | 88 W/m² | - |
| 1788561705 | 16.67° C | 72% | 1018.3 hPa | 0 mm | - | 100 W/m² | - |
| 1788561405 | 17.22° C | 76% | 1018.4 hPa | 0 mm | - | 115 W/m² | - |
| 1788561100 | 16.67° C | 78% | 1018.3 hPa | 1.78 mm | - | 111 W/m² | - |
| 1788560796 | 16.11° C | 76% | 1018.3 hPa | 1.78 mm | - | 107 W/m² | - |
| 1788560491 | 16.67° C | 72% | 1018.2 hPa | 0 mm | - | 96 W/m² | - |
| 1788560191 | 17.22° C | 69% | 1018.5 hPa | 1.78 mm | - | 85 W/m² | - |
| 1788559885 | 17.78° C | 68% | 1018.5 hPa | 3.56 mm | - | 71 W/m² | - |
| 1788559581 | 20° C | 61% | 1018.5 hPa | 0 mm | - | 59 W/m² | - |
| 1788559276 | 20° C | 54% | 1018.3 hPa | 0 mm | - | 55 W/m² | - |
| 1788558976 | 20° C | 56% | 1018.1 hPa | 0 mm | - | 48 W/m² | - |
| 1788558672 | 20.56° C | 55% | 1018.2 hPa | 0 mm | - | 53 W/m² | - |
* Rain latest hour (hover to see other rain measurements)
** Current wind speed in m/s (hover to see current wind gust speed)